#timestamp,LO_Frequency,Hit,Temp,Hum 
1487840415.5,286047001.8,N,0.0,0.0
1487840435.3,286047003.2,N,0.0,0.0
1487840455.1,286047006.7,N,0.0,0.0
1487840475.9,286047007.3,N,0.0,0.0
1487840495.7,286047004.6,N,0.0,0.0
1487840515.5,286047008.6,N,0.0,0.0
1487840535.4,286047006.8,N,0.0,0.0
1487840555.2,286047009.0,N,0.0,0.0
1487840575.0,286047007.0,N,0.0,0.0
1487840575.9,286047007.0,N,0.0,0.0
1487840595.8,286047009.5,N,0.0,0.0
1487840615.6,286047009.6,N,0.0,0.0
1487840635.4,286047009.6,N,0.0,0.0
1487840655.2,286047011.8,N,0.0,0.0
1487840675.1,286047010.9,N,0.0,0.0
1487840676.0,286047010.9,N,0.0,0.0
1487840695.8,286047012.7,N,0.0,0.0
1487840715.6,286047011.1,N,0.0,0.0
1487840735.5,286047013.1,N,0.0,0.0
1487840755.3,286047012.8,N,0.0,0.0
1487840775.1,286047016.8,N,0.0,0.0
1487840795.9,286047011.4,N,0.0,0.0
1487840815.7,286047010.0,N,0.0,0.0
1487840835.5,286047014.0,N,0.0,0.0
1487840855.4,286047015.2,N,0.0,0.0
1487840875.2,286047018.8,N,0.0,0.0
1487840895.0,286047017.1,N,0.0,0.0
1487840895.9,286047017.1,N,0.0,0.0
1487840915.8,286047018.4,N,0.0,0.0
1487840935.6,286047018.9,N,0.0,0.0
1487840955.4,286047019.8,Y,0.0,0.0
1487840975.3,286047007.3,N,0.0,0.0
1487840995.1,286047006.3,N,0.0,0.0
1487841015.8,286047010.2,N,0.0,0.0
1487841035.7,286047008.7,N,0.0,0.0
1487841055.5,286047006.9,N,0.0,0.0
1487841075.3,286047007.5,N,0.0,0.0
1487841095.2,286047007.3,N,0.0,0.0
1487841115.9,286047012.3,N,0.0,0.0
1487841135.7,286047009.4,N,0.0,0.0
1487841155.6,286047012.8,N,0.0,0.0
1487841175.4,286047013.9,N,0.0,0.0
1487841195.2,286047010.2,N,0.0,0.0
1487841215.0,286047010.6,N,0.0,0.0
1487841216.0,286047010.6,N,0.0,0.0
1487841235.8,286047010.0,N,0.0,0.0
1487841255.6,286047011.5,N,0.0,0.0
1487841275.4,286047011.7,N,0.0,0.0
1487841295.3,286047008.2,N,0.0,0.0
1487841315.1,286047011.8,N,0.0,0.0
1487841335.8,286047012.2,N,0.0,0.0
1487841355.7,286047009.4,N,0.0,0.0
1487841375.5,286047009.2,N,0.0,0.0
1487841395.3,286047008.8,N,0.0,0.0
1487841415.2,286047018.1,Y,0.0,0.0
1487841435.0,286047007.7,N,0.0,0.0
1487841435.9,286047007.7,N,0.0,0.0
1487841455.7,286047009.2,N,0.0,0.0
1487841475.6,286047004.8,N,0.0,0.0
1487841495.4,286047006.9,N,0.0,0.0
1487841515.2,286047009.0,N,0.0,0.0
1487841535.1,286047007.0,N,0.0,0.0
1487841536.0,286047007.0,N,0.0,0.0
1487841555.8,286047008.1,N,0.0,0.0
1487841575.6,286047003.4,N,0.0,0.0
1487841595.5,286047005.6,N,0.0,0.0
1487841615.3,286047004.7,N,0.0,0.0
1487841635.1,286047004.5,N,0.0,0.0
1487841655.9,286047005.1,N,0.0,0.0
1487841675.7,286047004.5,N,0.0,0.0
1487841695.5,286047004.3,N,0.0,0.0
1487841715.4,286047003.3,N,0.0,0.0
1487841735.2,286047003.2,N,0.0,0.0
1487841755.0,286047003.7,N,0.0,0.0
1487841755.9,286047003.7,N,0.0,0.0
1487841775.8,286047005.3,N,0.0,0.0
1487841795.6,286047003.3,N,0.0,0.0
1487841815.4,286047002.1,N,0.0,0.0
1487841835.3,286046999.9,N,0.0,0.0
1487841855.1,286046996.3,N,0.0,0.0
1487841856.0,286046996.3,N,0.0,0.0
1487841875.8,286046997.6,N,0.0,0.0
1487841895.7,286046996.1,N,0.0,0.0
1487841915.5,286046996.1,N,0.0,0.0
1487841935.3,286046995.7,N,0.0,0.0
1487841955.2,286046992.1,N,0.0,0.0
1487841975.9,286046990.3,N,0.0,0.0
1487841995.7,286046994.7,N,0.0,0.0
1487842015.5,286046990.6,N,0.0,0.0
1487842035.4,286046989.7,N,0.0,0.0
1487842055.2,286046986.4,N,0.0,0.0
1487842075.0,286046987.9,N,0.0,0.0
1487842075.9,286046987.9,N,0.0,0.0
1487842095.8,286046987.1,N,0.0,0.0
1487842115.6,286046986.4,N,0.0,0.0
1487842135.4,286046987.8,N,0.0,0.0
1487842155.3,286046984.8,N,0.0,0.0
1487842175.1,286046980.9,N,0.0,0.0
1487842195.8,286046981.7,N,0.0,0.0
1487842215.7,286046978.9,N,0.0,0.0
1487842235.5,286046983.5,N,0.0,0.0
1487842255.3,286046980.9,N,0.0,0.0
1487842275.2,286046980.3,N,0.0,0.0
1487842295.9,286046974.4,N,0.0,0.0
1487842315.7,286046972.7,N,0.0,0.0
1487842335.6,286046973.8,N,0.0,0.0
1487842355.4,286046973.7,N,0.0,0.0
1487842375.2,286046973.6,N,0.0,0.0
1487842395.1,286046974.8,N,0.0,0.0
1487842396.0,286046974.8,N,0.0,0.0
1487842415.8,286046974.6,N,0.0,0.0
1487842435.6,286046976.9,N,0.0,0.0
1487842455.5,286046975.1,N,0.0,0.0
1487842475.3,286046972.9,N,0.0,0.0
1487842495.1,286046975.5,N,0.0,0.0
1487842515.9,286046975.0,N,0.0,0.0
1487842535.7,286046972.5,N,0.0,0.0
1487842555.5,286046974.8,N,0.0,0.0
1487842575.3,286046969.4,N,0.0,0.0
1487842595.2,286046966.9,N,0.0,0.0
1487842615.0,286046968.2,N,0.0,0.0
1487842615.9,286046968.2,N,0.0,0.0
1487842635.7,286046966.8,N,0.0,0.0
1487842655.6,286046963.3,N,0.0,0.0
1487842675.4,286046964.7,N,0.0,0.0
1487842695.2,286046967.0,N,0.0,0.0
1487842715.1,286046967.5,N,0.0,0.0
1487842716.0,286046967.5,N,0.0,0.0
1487842735.8,286046964.9,N,0.0,0.0
1487842755.6,286046964.3,N,0.0,0.0
1487842775.5,286046961.6,N,0.0,0.0
1487842795.3,286046962.5,N,0.0,0.0
1487842815.1,286046962.7,N,0.0,0.0
1487842835.9,286046962.8,N,0.0,0.0
1487842855.7,286046959.3,N,0.0,0.0
1487842875.5,286046956.9,N,0.0,0.0
1487842895.4,286046956.7,N,0.0,0.0
1487842915.2,286046956.7,N,0.0,0.0
1487842935.0,286046956.8,N,0.0,0.0
1487842935.9,286046956.8,N,0.0,0.0
1487842955.8,286046957.8,N,0.0,0.0
1487842975.6,286046955.1,N,0.0,0.0
1487842995.4,286046955.7,N,0.0,0.0
1487843015.3,286046956.3,N,0.0,0.0
1487843035.1,286046953.6,N,0.0,0.0
1487843036.0,286046953.6,N,0.0,0.0
1487843055.8,286046952.4,N,0.0,0.0
1487843075.7,286046952.9,N,0.0,0.0
1487843095.5,286046950.0,N,0.0,0.0
1487843115.3,286046950.0,N,0.0,0.0
1487843135.2,286046947.6,N,0.0,0.0
1487843155.9,286046947.3,N,0.0,0.0
1487843175.7,286046943.8,Y,0.0,0.0
1487843195.6,286046967.3,N,0.0,0.0
1487843215.4,286046967.3,N,0.0,0.0
1487843235.2,286046967.3,N,0.0,0.0
1487843255.1,286046969.2,N,0.0,0.0
1487843256.0,286046969.2,N,0.0,0.0
1487843275.8,286046966.6,N,0.0,0.0
1487843295.6,286046965.2,N,0.0,0.0
1487843315.5,286046965.3,N,0.0,0.0
1487843335.3,286046964.7,N,0.0,0.0
1487843355.1,286046962.9,N,0.0,0.0
1487843375.8,286046965.7,N,0.0,0.0
1487843395.7,286046965.8,N,0.0,0.0
1487843415.5,286046965.4,N,0.0,0.0
1487843435.3,286046965.6,N,0.0,0.0
1487843455.2,286046963.9,N,0.0,0.0
1487843475.0,286046961.8,N,0.0,0.0
1487843475.9,286046961.8,N,0.0,0.0
1487843495.7,286046962.8,N,0.0,0.0
1487843515.6,286046961.6,N,0.0,0.0
1487843535.4,286046959.7,Y,0.0,0.0
1487843555.2,286046991.1,N,0.0,0.0
1487843575.1,286046989.9,N,0.0,0.0
1487843576.0,286046989.9,N,0.0,0.0
1487843595.8,286046987.4,N,0.0,0.0
1487843615.6,286046987.2,N,0.0,0.0
1487843635.5,286046986.9,N,0.0,0.0
1487843655.3,286046987.8,N,0.0,0.0
1487843675.1,286046985.3,N,0.0,0.0
1487843695.9,286046986.4,N,0.0,0.0
1487843715.7,286046986.4,N,0.0,0.0
1487843735.5,286046984.3,N,0.0,0.0
1487843755.4,286046982.2,N,0.0,0.0
1487843775.2,286046982.7,N,0.0,0.0
1487843795.0,286046980.8,N,0.0,0.0
1487843795.9,286046980.8,N,0.0,0.0
1487843815.8,286046981.2,N,0.0,0.0
1487843835.6,286046981.4,N,0.0,0.0
1487843855.4,286046981.7,N,0.0,0.0
1487843875.3,286046980.8,N,0.0,0.0
1487843895.1,286046981.4,N,0.0,0.0
1487843896.0,286046981.4,N,0.0,0.0
1487843915.8,286046979.5,N,0.0,0.0
1487843935.7,286046979.4,N,0.0,0.0
1487843955.5,286046980.4,N,0.0,0.0
1487843975.3,286046975.8,N,0.0,0.0
1487843995.2,286046977.5,N,0.0,0.0
